Torna al catalogo

RADARSAT

AttivoScienzaSSO
NORAD 23710·PAYLOAD·🇨🇦 Canada

Lanciato Nov 4, 1995 da Vandenberg Space Force Base

Loading…

Prossimi Passaggi (prossime 24 ore)

TLE

AggiornatoSource: Space-Track

Epoca: Sep 14, 2026, 07:05 UTC

1 23710U 95059A   26257.29565811  .00000124  00000-0  61864-4 0  9996
2 23710  98.5495 265.0269 0001443  99.0885 261.0462 14.32441853611101

Traccia RADARSAT in tempo reale con AllMySat

Download on the App Store